Regional Weather Roundup
Issued by NWS

Home | Current Version | Previous Version | Graphics & Text | Print | Product List | Glossary On
Versions: 1 2 3 4 5 6 7 8 9 10 11 12 13 14 15 16 17 18 19 20 21 22 23 24 25 26 27 28 29 30 31 32 33 34 35 36 37 38 39 40 41 42 43 44 45 46 47 48 49 50
580
ASUS45 KSLC 230810
RWRUT

UTAH REGIONAL WEATHER ROUNDUP
NATIONAL WEATHER SERVICE SALT LAKE CITY UT
200 AM MDT FRI JUN 23 2017

UTZ001>011-023>025-230900-

NORTHERN UTAH

CITY           SKY/WX    TMP DP  RH WIND       PRES   REMARKS
BRIGHAM CITY   CLEAR     62  32  32 CALM      30.10S
HILL AFB       CLEAR     63  32  30 S3        30.11S
LOGAN          CLEAR     50  42  74 CALM      30.13R
OGDEN          CLEAR     65  33  30 NW8       30.08F
SALT LAKE CITY CLEAR     67  44  43 N3        30.07S
TOOELE VALLEY  CLEAR     55  39  54 S6        30.11R
WENDOVER         N/A     70  17  13 N13       30.11S
HEBER CITY     CLEAR     46  36  66 CALM      30.16R
WEST JORDAN    CLEAR     67  41  37 W12       30.11S

$$

UTZ011>015-024>027-230900-

CENTRAL/NORTHEAST UTAH

CITY           SKY/WX    TMP DP  RH WIND       PRES   REMARKS
PROVO AIRPORT  CLEAR     61  41  47 VRB5      30.09S
MOAB/CANYONLAN CLEAR     77  26  15 NW8       29.97R
DELTA          CLEAR     63  27  25 CALM      30.09R
PRICE          CLEAR     65  24  21 NW10      30.13R
RICHFIELD      CLEAR     63  39  42 CALM      30.14
ROOSEVELT      CLEAR     59  30  33 W7        30.11S
VERNAL         CLEAR     70  33  25 NE13      30.10R

$$

UTZ013>016-019>022-027-230900-

SOUTHERN UTAH

CITY           SKY/WX    TMP DP  RH WIND       PRES   REMARKS
BRYCE CANYON   CLEAR     51  31  46 W6        30.27R
CEDAR CITY     CLEAR     66  31  27 S3        30.11R
MILFORD        CLEAR     64  23  21 E6        30.08S
ST GEORGE      SUNNY     92  33  12 VRB6      29.83R
HANKSVILLE     CLEAR     77  27  15 NW5       30.00S
BLANDING       CLEAR     71  32  23 NW9       30.12S

$$

REGIONAL REPORTS     COLORADO/ARIZONA

CITY           SKY/WX    TMP DP  RH WIND       PRES   REMARKS
CRAIG, CO      CLEAR     54  33  45 W10       30.16R
GRAND JUNCTION CLEAR     77  28  16 N15       29.99S
RIFLE, CO      CLOUDY    60  41  49 E5        30.07S
MONTROSE, CO   CLEAR     62  39  42 S7        30.06R
CORTEZ, CO     CLEAR     59  34  39 SE6       30.06R
COLORADO CITY    N/A     63  27  25 SE6       30.03R
PAGE, AZ       CLEAR     85  32  15 W5        29.94R
GRAND CANYON   NOT AVBL
KINGMAN, AZ    CLEAR     83  40  21 S6        29.90S
FLAGSTAFF, AZ  CLEAR     55  28  35 CALM      30.22S

$$

REGIONAL REPORTS    NEVADA/IDAHO/WYOMING

CITY           SKY/WX    TMP DP  RH WIND       PRES   REMARKS
LAS VEGAS, NV  CLEAR     99  19   5 S8        29.73S HX  92
ELY, NY        CLEAR     62  24  23 N10       30.20R
ELKO, NV       CLEAR     62  18  18 N5        30.20R
POCATELLO, ID  CLEAR     52  33  48 S6        30.17R
BURLEY, ID     CLEAR     59  33  37 N5        30.15R
FORT BRIDGER,    N/A     52  33  48 W7        30.29S
EVANSTON, WY   CLOUDY    53  34  48 CALM      30.26F
ROCK SPRINGS,  CLEAR     51  29  42 NE17      30.27R
KEMMERER, WY     N/A     45  34  65 N9        30.28S

$$




USA.gov is the U.S. government's official web portal to all federal, state and local government web resources and services.